Weather History for Alma, MI

Change the Weather History Date:

Sunday, February 10, 2013

  Actual Average Record
Temperature  
Mean Temperature 20 °F -  
Max Temperature 38 °F 31 °F 59 °F (2009)
Min Temperature 3 °F 10 °F -12 °F (1979)
Degree Days  
Heating Degree Days 45    
Moisture  
Dew Point 21 °F    
Average Humidity 90    
Maximum Humidity 99    
Minimum Humidity 67    
Precipitation  
Precipitation 0.00 in - - ()
Sea Level Pressure  
Sea Level Pressure 29.96 in    
Wind  
Wind Speed 4 mph (ESE)    
Max Wind Speed 16 mph    
Max Gust Speed 24 mph    
Visibility 6 miles    
Events Fog , Rain , Snow    
Averages and records for this station are not official NWS values.
T = Trace of Precipitation, MM = Missing Value Source: NWS Daily Summary

Daily Weather History Graph

Daily Weather History Graph

Search for Another Location

Airport:

Trip Planner

Search our weather history database for the weather conditions in past years. The results will help you decide how hot, cold, wet, or windy it might be!

Date:

Astronomy

Feb. 10, 2013 Rise Set
Actual Time 7:43 AM EST 6:03 PM EST
Civil Twilight 7:13 AM EST 6:32 PM EST
Nautical Twilight 6:40 AM EST 7:06 PM EST
Astronomical Twilight 6:07 AM EST 7:39 PM EST
Moon 7:30 AM EST (2/10) 6:56 PM EST (2/10)
Length of Visible Light 11h 19m
Length of Day
10h 19m
New Moon, 0% of the Moon is Illuminated
Feb 10
New Moon
Feb 17
First Quarter
Feb 25
Full
Mar 4
Last Quarter
Mar 11
New

Hourly Weather History & Observations

Time (EST) Temp. Windchill Dew Point Humidity Pressure Visibility Wind Dir Wind Speed Gust Speed Precip Events Conditions
12:13 AM 15.6 °F - 13.8 °F 93% 30.22 in 10.0 mi Calm Calm - N/A   Clear
12:33 AM 12.7 °F - 11.5 °F 95% 30.22 in 10.0 mi Calm Calm - N/A   Clear
12:53 AM 12.6 °F 4.8 °F 11.3 °F 95% 30.22 in 7.0 mi East 4.6 mph - N/A   Clear
1:14 AM 12.0 °F 5.9 °F 10.8 °F 95% 30.21 in 5.0 mi East 3.5 mph - N/A   Clear
1:34 AM 9.1 °F - 7.3 °F 92% 30.21 in 4.0 mi Calm Calm - N/A   Clear
1:54 AM 10.9 °F - 9.3 °F 93% 30.19 in 3.0 mi Calm Calm - N/A   Clear
2:14 AM 10.4 °F 4.0 °F 8.6 °F 92% 30.18 in 2.5 mi NE 3.5 mph - N/A   Clear
2:34 AM 8.1 °F - 5.9 °F 91% 30.19 in 2.5 mi Calm Calm - N/A   Clear
2:54 AM 4.6 °F -4.5 °F 2.5 °F 91% 30.18 in 0.2 mi ENE 4.6 mph - N/A Fog Light Freezing Fog
3:14 AM 4.6 °F -4.5 °F 2.1 °F 89% 30.18 in 0.2 mi ENE 4.6 mph - N/A Fog Light Freezing Fog
3:34 AM 6.4 °F -0.5 °F 4.6 °F 92% 30.17 in 0.2 mi ENE 3.5 mph - N/A Fog Light Freezing Fog
3:54 AM 7.3 °F 0.5 °F 5.2 °F 91% 30.17 in 0.2 mi ENE 3.5 mph - N/A Fog Light Freezing Fog
4:15 AM 5.9 °F - 3.7 °F 91% 30.17 in 0.2 mi Calm Calm - N/A Fog Light Freezing Fog
4:35 AM 6.3 °F - 4.5 °F 92% 30.16 in 0.2 mi Calm Calm - N/A Fog Light Freezing Fog
4:50 AM 8.2 °F - 6.4 °F 92% 30.16 in 2.0 mi Calm Calm - N/A   Scattered Clouds
5:10 AM 10.9 °F - 9.3 °F 93% 30.16 in 5.0 mi Calm Calm - N/A   Clear
5:30 AM 11.8 °F - 10.4 °F 94% 30.16 in 7.0 mi Calm Calm - N/A   Clear
5:50 AM 12.6 °F 6.5 °F 10.9 °F 93% 30.16 in 7.0 mi ENE 3.5 mph - N/A   Clear
6:10 AM 8.4 °F 1.8 °F 6.3 °F 91% 30.16 in 4.0 mi ENE 3.5 mph - N/A   Clear
6:30 AM 8.4 °F -0.1 °F 6.8 °F 93% 30.16 in 4.0 mi ENE 4.6 mph - N/A   Clear
6:50 AM 3.6 °F -5.7 °F 1.0 °F 89% 30.15 in 0.8 mi ENE 4.6 mph - N/A   Mist
7:10 AM 7.5 °F - 5.7 °F 92% 30.15 in 2.5 mi Calm Calm - N/A   Clear
7:31 AM 8.6 °F 0.1 °F 7.0 °F 93% 30.14 in 4.0 mi ENE 4.6 mph - N/A   Scattered Clouds
7:51 AM 8.6 °F - 7.0 °F 93% 30.14 in 1.8 mi Calm Calm - N/A   Mist
8:11 AM 6.1 °F - 3.2 °F 88% 30.13 in 2.0 mi Calm Calm - N/A   Clear
8:31 AM 7.0 °F -1.7 °F 5.0 °F 92% 30.12 in 2.0 mi ENE 4.6 mph - N/A   Clear
8:51 AM 9.9 °F 1.6 °F 7.5 °F 90% 30.10 in 4.0 mi NE 4.6 mph - N/A   Clear
9:11 AM 16.9 °F 8.5 °F 16.3 °F 98% 30.08 in 5.0 mi NE 5.8 mph - N/A Snow Light Snow
9:31 AM 19.4 °F 11.5 °F 18.3 °F 96% 30.06 in 7.0 mi NE 5.8 mph - N/A   Overcast
9:51 AM 18.5 °F - 17.6 °F 96% 30.07 in 7.0 mi Calm Calm - N/A   Overcast
10:12 AM 21.0 °F 13.4 °F 20.3 °F 97% 30.06 in 7.0 mi East 5.8 mph - N/A   Overcast
10:32 AM 21.6 °F 14.0 °F 20.8 °F 97% 30.05 in 10.0 mi ENE 5.8 mph - N/A   Overcast
10:52 AM 23.0 °F 17.0 °F 22.6 °F 99% 30.07 in 10.0 mi ESE 4.6 mph - N/A   Overcast
11:12 AM 23.9 °F 19.5 °F 23.5 °F 99% 30.06 in 10.0 mi East 3.5 mph - N/A   Overcast
11:32 AM 24.8 °F 17.9 °F 24.4 °F 99% 30.04 in 10.0 mi ENE 5.8 mph - N/A   Overcast
11:52 AM 25.5 °F - 25.0 °F 98% 30.06 in 10.0 mi Calm Calm - N/A   Overcast
12:12 PM 26.2 °F 19.6 °F 25.7 °F 98% 30.03 in 10.0 mi NE 5.8 mph - N/A   Overcast
12:32 PM 27.5 °F - 27.1 °F 99% 30.01 in 7.0 mi Calm Calm - N/A   Light Freezing Rain
12:52 PM 30.9 °F 26.2 °F 27.7 °F 88% 29.98 in 10.0 mi East 4.6 mph - N/A   Overcast
1:13 PM 32.4 °F 26.0 °F 26.4 °F 79% 29.97 in 10.0 mi ESE 6.9 mph - N/A   Overcast
1:33 PM 32.9 °F 29.8 °F 26.8 °F 78% 29.95 in 10.0 mi ESE 3.5 mph - N/A Rain Light Rain
1:53 PM 33.3 °F 28.9 °F 26.2 °F 75% 29.94 in 10.0 mi East 4.6 mph - N/A   Overcast
2:13 PM 34.0 °F 28.0 °F 25.5 °F 71% 29.93 in 10.0 mi East 6.9 mph - N/A   Overcast
2:33 PM 34.3 °F 28.4 °F 25.5 °F 70% 29.92 in 10.0 mi ESE 6.9 mph - N/A   Overcast
2:53 PM 34.9 °F 27.1 °F 25.7 °F 69% 29.90 in 10.0 mi ESE 10.4 mph - N/A   Overcast
3:13 PM 35.6 °F 29.2 °F 25.7 °F 67% 29.88 in 10.0 mi East 8.1 mph - N/A   Overcast
3:33 PM 35.2 °F 27.6 °F 27.3 °F 73% 29.86 in 10.0 mi East 10.4 mph - N/A   Overcast
3:53 PM 35.4 °F 27.8 °F 27.9 °F 74% 29.85 in 10.0 mi East 10.4 mph - N/A   Overcast
4:14 PM 35.6 °F 29.2 °F 28.2 °F 75% 29.84 in 10.0 mi ESE 8.1 mph - N/A Rain Rain
4:34 PM 35.6 °F 29.2 °F 28.8 °F 76% 29.84 in 10.0 mi ESE 8.1 mph - N/A Rain Light Rain
4:54 PM 35.6 °F 28.0 °F 29.3 °F 78% 29.82 in 7.0 mi ESE 10.4 mph 16.1 mph N/A Rain Light Rain
5:14 PM 35.6 °F 28.6 °F 29.7 °F 79% 29.80 in 7.0 mi ESE 9.2 mph - N/A Rain Rain
5:34 PM 35.2 °F 27.6 °F 30.0 °F 81% 29.78 in 10.0 mi ESE 10.4 mph 17.3 mph N/A Rain Light Rain
5:54 PM 35.6 °F 28.0 °F 30.2 °F 81% 29.75 in 7.0 mi ESE 10.4 mph 17.3 mph N/A Rain Rain
6:14 PM 36.0 °F - 30.7 °F 81% 29.76 in 5.0 mi Calm Calm - N/A Rain Light Rain
6:34 PM 35.6 °F 29.2 °F 32.0 °F 87% 29.75 in 7.0 mi SE 8.1 mph - N/A Rain Light Rain
6:55 PM 35.8 °F 27.8 °F 32.4 °F 87% 29.74 in 5.0 mi SE 11.5 mph 17.3 mph N/A Rain Light Rain
7:15 PM 35.6 °F 27.5 °F 32.9 °F 90% 29.74 in 3.0 mi SE 11.5 mph 17.3 mph N/A Rain Light Rain
7:35 PM 35.8 °F 26.1 °F 34.2 °F 94% 29.73 in 2.0 mi SE 16.1 mph 20.7 mph N/A   Overcast
7:55 PM 36.0 °F 26.3 °F 33.8 °F 92% 29.71 in 5.0 mi SE 16.1 mph 19.6 mph N/A Rain Light Rain
8:15 PM 36.0 °F 26.7 °F 34.3 °F 94% 29.69 in 2.5 mi SE 15.0 mph 23.0 mph N/A Snow Light Snow
8:30 PM 35.8 °F 26.9 °F 34.7 °F 96% 29.69 in 2.5 mi SE 13.8 mph 24.2 mph N/A   Overcast
8:50 PM 35.8 °F 27.8 °F 34.9 °F 97% 29.67 in 2.5 mi SSE 11.5 mph 16.1 mph N/A Rain Light Rain
9:10 PM 36.0 °F 28.5 °F 35.2 °F 97% 29.67 in 2.5 mi SE 10.4 mph 17.3 mph N/A Snow Light Snow
9:30 PM 36.7 °F 28.0 °F 35.8 °F 97% 29.66 in 5.0 mi SSE 13.8 mph 18.4 mph N/A   Drizzle
9:51 PM 37.0 °F 28.5 °F 36.0 °F 96% 29.65 in 5.0 mi SSE 13.8 mph 17.3 mph N/A Rain Rain
10:11 PM 37.0 °F 29.8 °F 36.0 °F 96% 29.65 in 4.0 mi South 10.4 mph - N/A Rain Light Rain
10:31 PM 37.0 °F 28.9 °F 35.8 °F 95% 29.63 in 7.0 mi SSE 12.7 mph - N/A   Overcast
10:51 PM 37.4 °F 30.3 °F 35.8 °F 94% 29.62 in 10.0 mi SSE 10.4 mph - N/A   Overcast
11:11 PM 37.6 °F 31.0 °F 35.8 °F 93% 29.61 in 10.0 mi SSE 9.2 mph - N/A   Overcast
11:31 PM 37.4 °F 30.8 °F 36.0 °F 95% 29.60 in 10.0 mi South 9.2 mph - N/A   Overcast
11:51 PM 38.3 °F 30.9 °F 36.3 °F 93% 29.59 in 10.0 mi South 11.5 mph - N/A   Overcast